TimeCOT,TemperatureF,Dew PointF,Humidity,Sea Level PressureIn,VisibilityMPH,Wind Direction,Wind SpeedMPH,Gust SpeedMPH,PrecipitationIn,Events,Conditions,WindDirDegrees,DateUTC
12:00 AM,66.2,62.6,88,30.12,6.2,South,3.5,-,N/A,,Scattered Clouds,180,2013-04-28 05:00:00
5:00 AM,64.4,60.8,88,30.08,6.2,East,6.9,-,N/A,,Partly Cloudy,90,2013-04-28 10:00:00
6:00 AM,64.4,60.8,88,30.09,6.2,East,6.9,-,N/A,,Scattered Clouds,100,2013-04-28 11:00:00
7:00 AM,65,59,76,,9,East,2.2,,,,Haze,100,2013-04-28 12:00:00
7:00 AM,64.4,59.0,83,30.11,6.2,Variable,2.3,-,N/A,,Scattered Clouds,0,2013-04-28 12:00:00
8:00 AM,68.0,62.6,83,30.14,6.2,Calm,Calm,-,N/A,,Scattered Clouds,0,2013-04-28 13:00:00
9:00 AM,69.8,64.4,83,30.14,6.2,Variable,2.3,-,N/A,,Mostly Cloudy,0,2013-04-28 14:00:00
10:00 AM,72,63,67,,9,SW,2.2,,,,Haze,220,2013-04-28 15:00:00
10:00 AM,71.6,62.6,73,30.14,6.2,Variable,2.3,-,N/A,,Partly Cloudy,0,2013-04-28 15:00:00
11:00 AM,75.2,64.4,69,30.12,6.2,NW,6.9,-,N/A,,Partly Cloudy,310,2013-04-28 16:00:00
12:00 PM,77.0,64.4,65,30.11,6.2,NW,4.6,-,N/A,,Partly Cloudy,310,2013-04-28 17:00:00
1:00 PM,77,65,59,,9,SW,2.2,,,,Haze,220,2013-04-28 18:00:00
1:00 PM,77.0,66.2,69,30.08,6.2,NNW,4.6,-,N/A,,Partly Cloudy,340,2013-04-28 18:00:00
2:00 PM,78.8,66.2,65,30.06,6.2,Variable,2.3,-,N/A,,Partly Cloudy,0,2013-04-28 19:00:00
3:00 PM,80.6,66.2,61,30.02,6.2,South,6.9,-,N/A,,Scattered Clouds,190,2013-04-28 20:00:00
4:00 PM,78.8,64.4,61,29.98,6.2,West,3.5,-,N/A,,Scattered Clouds,270,2013-04-28 21:00:00
5:00 PM,77.0,64.4,65,30.00,6.2,ESE,6.9,-,N/A,,Scattered Clouds,110,2013-04-28 22:00:00
6:00 PM,75.2,64.4,69,30.01,6.2,ENE,8.1,-,N/A,,Scattered Clouds,70,2013-04-28 23:00:00
7:00 PM,71.6,64.4,78,30.03,6.2,ESE,4.6,-,N/A,,Scattered Clouds,110,2013-04-29 00:00:00
8:00 PM,69.8,64.4,83,30.04,6.2,East,9.2,-,N/A,,Partly Cloudy,100,2013-04-29 01:00:00
9:00 PM,68.0,64.4,88,30.06,6.2,East,8.1,-,N/A,,Scattered Clouds,100,2013-04-29 02:00:00
10:00 PM,67,64,86,,9,East,8.9,,,,Haze,90,2013-04-29 03:00:00
10:00 PM,68.0,64.4,88,30.09,6.2,East,8.1,-,N/A,,Partly Cloudy,90,2013-04-29 03:00:00
11:00 PM,68.0,64.4,88,30.08,6.2,East,9.2,-,N/A,,Partly Cloudy,90,2013-04-29 04:00:00